Retour au catalogue

SCOUT B DEB

LostUNKNOWN
NORAD 29177·DEBRIS·🇺🇸 United States

Lancé Aug 10, 1965 depuis Wallops Flight Facility

Loading…

Prochains Passages (prochaines 24 heures)

TLE

PériméSource: Space-Track

Époque: Jun 14, 2025, 05:07 UTC

1 29177U 65063AB  25165.21377764  .00000239  00000-0  20770-2 0  9994
2 29177  69.2115 147.6443 0668612 326.8244  46.3706 11.89089647 25803

Suivez SCOUT B DEB en temps réel avec AllMySat

Download on the App Store